Regional Weather Roundup
Issued by NWS

Home | Current Version | Previous Version | Graphics & Text | Print | Product List | Glossary On
Versions: 1 2 3 4 5 6 7 8 9 10 11 12 13 14 15 16 17 18 19 20 21 22 23 24 25 26 27 28 29 30 31 32 33 34 35 36 37 38 39 40 41 42 43 44 45 46 47 48 49 50
000
ASUS43 KOAX 262202
RWRNE

WEATHER ROUNDUP FOR NEBRASKA
NATIONAL WEATHER SERVICE OMAHA NE
500 PM CDT THU MAY 26 2016

NOTES: SATELLITE DATA IS BEING USED TO AUGMENT CLOUD COVER ABOVE
       12000 FEET.
       "FAIR" INDICATES FEW OR NO CLOUDS BELOW 12,000 FEET WITH NO
       SIGNIFICANT WEATHER AND/OR OBSTRUCTIONS TO VISIBILITY.

  * THESE STATIONS DO NOT REPORT WEATHER SUCH AS RAIN...SNOW OR FOG.

NEZ001>004-019>022-054>056-262300-
NEBRASKA PANHANDLE

CITY           SKY/WX    TMP DP  RH WIND       PRES   REMARKS
SCOTTSBLUFF    CLOUDY    63  40  42 W17G29    29.89S
ALLIANCE       CLOUDY    66  42  41 W24G35    29.85S
CHADRON        CLOUDY    67  44  43 W6        29.85S
SIDNEY         CLOUDY    68  41  37 N12       29.86F
$$

NEZ057>060-069>072-079>082-262300-
SOUTHWEST NEBRASKA

CITY           SKY/WX    TMP DP  RH WIND       PRES   REMARKS
NORTH PLATTE   SUNNY     78  45  30 NE14G20   29.76F
IMPERIAL       MOSUNNY   76  42  29 NE23G30   29.75F
LEXINGTON      CLOUDY    73  56  54 NE16G24   29.74F
MCCOOK         PTSUNNY   76  59  55 E18G26    29.73F
$$

NEZ005>010-023>029-035>040-094-262300-
NORTH CENTRAL NEBRASKA

CITY           SKY/WX    TMP DP  RH WIND       PRES   REMARKS
VALENTINE      SUNNY     78  45  30 N8        29.75F
AINSWORTH      SUNNY     74  52  47 SE7       29.78F
BROKEN BOW     MOSUNNY   77  48  35 E12       29.79R
ORD            CLOUDY    78  47  33 E13       29.76R
$$

NEZ041-046>049-061>064-073>077-083>087-262300-
SOUTH CENTRAL NEBRASKA

CITY           SKY/WX    TMP DP  RH WIND       PRES   REMARKS
GRAND ISLAND   CLOUDY    74  56  53 E10       29.78R
AURORA         CLOUDY    73  59  61 E5        29.75R
HASTINGS       CLOUDY    72  58  61 E14       29.74S
KEARNEY *      CLOUDY    73  55  53 E16       29.76F
YORK           CLOUDY    70  59  68 E8        29.76R
$$

NEZ011>018-030>034-042>045-262300-
NORTHEAST NEBRASKA

CITY           SKY/WX    TMP DP  RH WIND       PRES   REMARKS
NORFOLK        CLOUDY    77  54  44 N12       29.76F
ALBION         CLOUDY    77  52  42 NE10      29.78R
BLAIR          CLOUDY    75  59  58 E18G24    29.80R
FREMONT        CLOUDY    76  54  45 E18G24    29.68F
TEKAMAH        CLOUDY    75  59  57 E17       29.68F
$$

NEZ050>053-065>068-078-088>093-262300-
SOUTHEAST NEBRASKA

CITY           SKY/WX    TMP DP  RH WIND       PRES   REMARKS
LINCOLN        LGT RAIN  68  60  75 E22G31    29.70F
OMAHA EPPLEY   TSTM      70  64  81 SE6G24    29.82R
BEATRICE       CLOUDY    62  59  92 E15G29    29.83R
FALLS CITY     LGT RAIN  69  59  70 S23G41    29.77R
NEBRASKA CITY  CLOUDY    65  65 100 N13G18    29.85R THUNDER
$$

NEZ044-045-051>053-067-262300-
OMAHA AREA

CITY           SKY/WX    TMP DP  RH WIND       PRES   REMARKS
OMAHA EPPLEY   TSTM      70  64  81 SE6G24    29.82R
BLAIR          CLOUDY    75  59  58 E18G24    29.80R
FREMONT        CLOUDY    76  54  45 E18G24    29.68F
OFFUTT AFB     TSTM      63  63 100 E26       29.77R
WAHOO          FAIR      76  55  49 E21G30    29.67F
$$




USA.gov is the U.S. government's official web portal to all federal, state and local government web resources and services.